| time (UTC) | temp F | wind direction | speed MPH | gust MPH | rain 1hr in | rain 24hr in | rain mn in | humidity % | barometer mb |
| 20260509122813 | 42 | 152 | 0.0 | 0.0 | 0.00 | 0.00 | 0.00 | ||
| 20260509122256 | 42 | 148 | 5.0 | 8.0 | 0.00 | 0.00 | 0.00 | ||
| 20260509121739 | 42 | 143 | 0.0 | 0.0 | 0.00 | 0.00 | 0.00 | ||
| 20260509121222 | 42 | 157 | 0.0 | 0.0 | 0.00 | 0.00 | 0.00 | ||
| 20260509120705 | 42 | 157 | 0.0 | 2.0 | 0.00 | 0.00 | 0.00 | ||
| 20260509120149 | 41 | 167 | 0.0 | 1.0 | 0.00 | 0.00 | 0.00 | ||
| 20260509115631 | 41 | 156 | 0.0 | 1.0 | 0.00 | 0.00 | 0.00 | ||
| 20260509115115 | 41 | 166 | 0.0 | 0.0 | 0.00 | 0.00 | 0.00 | ||
| 20260509114557 | 41 | 148 | 0.0 | 0.0 | 0.00 | 0.00 | 0.00 | ||
| 20260509114041 | 41 | 151 | 0.0 | 0.0 | 0.00 | 0.00 | 0.00 | ||
| 20260509113523 | 41 | 151 | 0.0 | 1.0 | 0.00 | 0.00 | 0.00 | ||
| 20260509113007 | 41 | 157 | 0.0 | 1.0 | 0.00 | 0.00 | 0.00 | ||
| 20260509112449 | 41 | 166 | 0.0 | 0.0 | 0.00 | 0.00 | 0.00 | ||
| 20260509111933 | 41 | 146 | 0.0 | 0.0 | 0.00 | 0.00 | 0.00 | ||
| 20260509111415 | 41 | 167 | 0.0 | 0.0 | 0.00 | 0.00 | 0.00 | ||
| 20260509110859 | 41 | 175 | 0.0 | 0.0 | 0.00 | 0.00 | 0.00 | ||
| 20260509110342 | 41 | 162 | 0.0 | 1.0 | 0.00 | 0.00 | 0.00 | ||
| 20260509105825 | 40 | 171 | 0.0 | 0.0 | 0.00 | 0.00 | 0.00 | ||
| 20260509105308 | 40 | 180 | 0.0 | 0.0 | 0.00 | 0.00 | 0.00 | ||
| 20260509104751 | 40 | 159 | 0.0 | 1.0 | 0.00 | 0.00 | 0.00 | ||
| 20260509104234 | 40 | 150 | 0.0 | 0.0 | 0.00 | 0.00 | 0.00 | ||
| 20260509103717 | 40 | 156 | 0.0 | 0.0 | 0.00 | 0.00 | 0.00 | ||
| 20260509102643 | 40 | 156 | 0.0 | 1.0 | 0.00 | 0.00 | 0.00 | ||
| 20260509102126 | 40 | 163 | 0.0 | 0.0 | 0.00 | 0.00 | 0.00 | ||
| 20260509101609 | 40 | 165 | 0.0 | 0.0 | 0.00 | 0.00 | 0.00 | ||
| 20260509101052 | 40 | 142 | 0.0 | 0.0 | 0.00 | 0.00 | 0.00 | ||
| 20260509100535 | 40 | 145 | 0.0 | 0.0 | 0.00 | 0.00 | 0.00 | ||
| 20260509100018 | 40 | 157 | 0.0 | 1.0 | 0.00 | 0.00 | 0.00 | ||
| 20260509095501 | 40 | 169 | 0.0 | 0.0 | 0.00 | 0.00 | 0.00 | ||
| 20260509094944 | 40 | 170 | 0.0 | 0.0 | 0.00 | 0.00 | 0.00 | ||
| 20260509094427 | 40 | 172 | 0.0 | 0.0 | 0.00 | 0.00 | 0.00 | ||
| 20260509093910 | 40 | 163 | 0.0 | 0.0 | 0.00 | 0.00 | 0.00 | ||
| 20260509093353 | 40 | 147 | 0.0 | 1.0 | 0.00 | 0.00 | 0.00 | ||
| 20260509092836 | 40 | 146 | 0.0 | 1.0 | 0.00 | 0.00 | 0.00 | ||
| 20260509092319 | 41 | 149 | 0.0 | 0.0 | 0.00 | 0.00 | 0.00 | ||
| 20260509091802 | 40 | 154 | 0.0 | 1.0 | 0.00 | 0.00 | 0.00 | ||
| 20260509091245 | 40 | 160 | 0.0 | 0.0 | 0.00 | 0.00 | 0.00 | ||
| 20260509090728 | 40 | 140 | 0.0 | 0.0 | 0.00 | 0.00 | 0.00 | ||
| 20260509090211 | 40 | 140 | 0.0 | 0.0 | 0.00 | 0.00 | 0.00 | ||
| 20260509085654 | 40 | 150 | 0.0 | 0.0 | 0.00 | 0.00 | 0.00 | ||
| 20260509085137 | 40 | 145 | 0.0 | 0.0 | 0.00 | 0.00 | 0.00 | ||
| 20260509084620 | 40 | 140 | 0.0 | 0.0 | 0.00 | 0.00 | 0.00 | ||
| 20260509084104 | 40 | 150 | 0.0 | 0.0 | 0.00 | 0.00 | 0.00 | ||
| 20260509083546 | 40 | 146 | 0.0 | 0.0 | 0.00 | 0.00 | 0.00 | ||
| 20260509083030 | 40 | 146 | 0.0 | 1.0 | 0.00 | 0.00 | 0.00 | ||
| 20260509082512 | 40 | 162 | 0.0 | 1.0 | 0.00 | 0.00 | 0.00 | ||
| 20260509081956 | 40 | 154 | 0.0 | 0.0 | 0.00 | 0.00 | 0.00 | ||
| 20260509081438 | 40 | 144 | 0.0 | 0.0 | 0.00 | 0.00 | 0.00 | ||
| 20260509080404 | 40 | 165 | 0.0 | 0.0 | 0.00 | 0.00 | 0.00 | ||
| 20260509075848 | 40 | 166 | 0.0 | 0.0 | 0.00 | 0.00 | 0.00 | ||
| 20260509075331 | 40 | 148 | 0.0 | 0.0 | 0.00 | 0.00 | 0.00 | ||
| 20260509074814 | 40 | 157 | 0.0 | 0.0 | 0.00 | 0.00 | 0.00 | ||
| 20260509074257 | 40 | 154 | 0.0 | 0.0 | 0.00 | 0.00 | 0.00 | ||
| 20260509073223 | 39 | 165 | 0.0 | 0.0 | 0.00 | 0.00 | 0.00 | ||
| 20260509072706 | 39 | 163 | 0.0 | 0.0 | 0.00 | 0.00 | 0.00 | ||
| 20260509072149 | 39 | 149 | 0.0 | 0.0 | 0.00 | 0.00 | 0.00 | ||
| 20260509071115 | 39 | 155 | 0.0 | 0.0 | 0.00 | 0.00 | 0.00 | ||
| 20260509070558 | 39 | 153 | 0.0 | 0.0 | 0.00 | 0.00 | 0.00 | ||
| 20260509070041 | 39 | 150 | 0.0 | 0.0 | 0.00 | 0.00 | 0.00 | ||
| 20260509065524 | 39 | 150 | 0.0 | 0.0 | 0.00 | 0.00 | 0.00 | ||
| 20260509065007 | 39 | 151 | 0.0 | 0.0 | 0.00 | 0.00 | 0.00 | ||
| 20260509064450 | 39 | 169 | 0.0 | 0.0 | 0.00 | 0.00 | 0.00 | ||
| 20260509063933 | 39 | 163 | 0.0 | 0.0 | 0.00 | 0.00 | 0.00 | ||
| 20260509063416 | 38 | 170 | 0.0 | 0.0 | 0.00 | 0.00 | 0.00 | ||
| 20260509062859 | 38 | 152 | 0.0 | 0.0 | 0.00 | 0.00 | 0.00 | ||
| 20260509062342 | 38 | 153 | 0.0 | 0.0 | 0.00 | 0.00 | 0.00 | ||
| 20260509061825 | 38 | 166 | 0.0 | 0.0 | 0.00 | 0.00 | 0.00 | ||
| 20260509061308 | 38 | 150 | 0.0 | 0.0 | 0.00 | 0.00 | 0.00 | ||
| 20260509060751 | 38 | 155 | 0.0 | 0.0 | 0.00 | 0.00 | 0.00 | ||
| 20260509060234 | 38 | 149 | 0.0 | 0.0 | 0.00 | 0.00 | 0.00 | ||
| 20260509055717 | 38 | 147 | 0.0 | 0.0 | 0.00 | 0.00 | 0.00 | ||
| 20260509055200 | 38 | 164 | 0.0 | 0.0 | 0.00 | 0.00 | 0.00 | ||
| 20260509054643 | 37 | 151 | 0.0 | 0.0 | 0.00 | 0.00 | 0.00 | ||
| 20260509054126 | 37 | 148 | 0.0 | 0.0 | 0.00 | 0.00 | 0.00 | ||
| 20260509053609 | 37 | 146 | 0.0 | 0.0 | 0.00 | 0.00 | 0.00 | ||
| 20260509053052 | 37 | 156 | 0.0 | 0.0 | 0.00 | 0.00 | 0.00 | ||
| 20260509052535 | 37 | 175 | 0.0 | 0.0 | 0.00 | 0.00 | 0.00 | ||
| 20260509052019 | 36 | 153 | 0.0 | 0.0 | 0.00 | 0.00 | 0.00 | ||
| 20260509051501 | 36 | 161 | 0.0 | 0.0 | 0.00 | 0.00 | 0.00 | ||
| 20260509050945 | 36 | 154 | 0.0 | 0.0 | 0.00 | 0.00 | 0.00 | ||
| 20260509050427 | 35 | 158 | 0.0 | 0.0 | 0.00 | 0.00 | 0.00 | ||
| 20260509045911 | 35 | 182 | 0.0 | 0.0 | 0.00 | 0.00 | 0.00 | ||
| 20260509045353 | 35 | 180 | 0.0 | 0.0 | 0.00 | 0.00 | 0.00 | ||
| 20260509044837 | 34 | 181 | 0.0 | 0.0 | 0.00 | 0.00 | 0.00 | ||
| 20260509044319 | 34 | 180 | 0.0 | 0.0 | 0.00 | 0.00 | 0.00 | ||
| 20260509043803 | 34 | 174 | 0.0 | 0.0 | 0.00 | 0.00 | 0.00 | ||
| 20260509043245 | 33 | 181 | 0.0 | 0.0 | 0.00 | 0.00 | 0.00 | ||
| 20260509042729 | 33 | 181 | 0.0 | 0.0 | 0.00 | 0.00 | 0.00 | ||
| 20260509042212 | 32 | 194 | 0.0 | 0.0 | 0.00 | 0.00 | 0.00 | ||
| 20260509041655 | 32 | 186 | 0.0 | 0.0 | 0.00 | 0.00 | 0.00 | ||
| 20260509041138 | 32 | 198 | 0.0 | 0.0 | 0.00 | 0.00 | 0.00 | ||
| 20260509040621 | 31 | 315 | 0.0 | 0.0 | 0.00 | 0.00 | 0.00 | ||
| 20260509040104 | 31 | 315 | 0.0 | 0.0 | 0.00 | 0.00 | 0.00 | ||
| 20260509035547 | 31 | 318 | 0.0 | 0.0 | 0.00 | 0.00 | 0.00 | ||
| 20260509035030 | 31 | 321 | 0.0 | 0.0 | 0.00 | 0.00 | 0.00 | ||
| 20260509034513 | 32 | 112 | 0.0 | 0.0 | 0.00 | 0.00 | 0.00 | ||
| 20260509033956 | 32 | 337 | 0.0 | 0.0 | 0.00 | 0.00 | 0.00 | ||
| 20260509033439 | 32 | 327 | 0.0 | 0.0 | 0.00 | 0.00 | 0.00 | ||
| 20260509032922 | 32 | 180 | 0.0 | 0.0 | 0.00 | 0.00 | 0.00 | ||
| 20260509032405 | 32 | 292 | 0.0 | 0.0 | 0.00 | 0.00 | 0.00 | ||
| 20260509031848 | 32 | 14 | 0.0 | 0.0 | 0.00 | 0.00 | 0.00 | ||
| 20260509031331 | 31 | 329 | 0.0 | 0.0 | 0.00 | 0.00 | 0.00 | ||
| 20260509030814 | 31 | 351 | 0.0 | 0.0 | 0.00 | 0.00 | 0.00 | ||
| 20260509030257 | 30 | 101 | 0.0 | 0.0 | 0.00 | 0.00 | 0.00 | ||
| 20260509025740 | 29 | 0 | 0.0 | 0.0 | 0.00 | 0.00 | 0.00 | ||
| 20260509025223 | 29 | 219 | 0.0 | 0.0 | 0.00 | 0.00 | 0.00 | ||
| 20260509024706 | 29 | 75 | 0.0 | 0.0 | 0.00 | 0.00 | 0.00 | ||
| 20260509024149 | 30 | 315 | 0.0 | 0.0 | 0.00 | 0.00 | 0.00 | ||
| 20260509023632 | 30 | 309 | 0.0 | 0.0 | 0.00 | 0.00 | 0.00 | ||
| 20260509023115 | 31 | 247 | 0.0 | 0.0 | 0.00 | 0.00 | 0.00 | ||
| 20260509022558 | 30 | 157 | 0.0 | 0.0 | 0.00 | 0.00 | 0.00 | ||
| 20260509022041 | 30 | 320 | 0.0 | 0.0 | 0.00 | 0.00 | 0.00 | ||
| 20260509021524 | 31 | 95 | 0.0 | 0.0 | 0.00 | 0.00 | 0.00 | ||
| 20260509021007 | 31 | 317 | 0.0 | 0.0 | 0.00 | 0.00 | 0.00 | ||
| 20260509020450 | 32 | 351 | 0.0 | 0.0 | 0.00 | 0.00 | 0.00 | ||
| 20260509015934 | 32 | 337 | 0.0 | 0.0 | 0.00 | 0.00 | 0.00 | ||
| 20260509015416 | 32 | 348 | 0.0 | 0.0 | 0.00 | 0.00 | 0.00 | ||
| 20260509014900 | 32 | 320 | 0.0 | 0.0 | 0.00 | 0.00 | 0.00 | ||
| 20260509014342 | 32 | 315 | 0.0 | 0.0 | 0.00 | 0.00 | 0.00 | ||
| 20260509013826 | 32 | 323 | 0.0 | 0.0 | 0.00 | 0.00 | 0.00 | ||
| 20260509013308 | 32 | 320 | 0.0 | 0.0 | 0.00 | 0.00 | 0.00 | ||
| 20260509012234 | 33 | 315 | 0.0 | 0.0 | 0.00 | 0.00 | 0.00 | ||
| 20260509011718 | 33 | 315 | 0.0 | 0.0 | 0.00 | 0.00 | 0.00 | ||
| 20260509011200 | 34 | 315 | 0.0 | 0.0 | 0.00 | 0.00 | 0.00 | ||
| 20260509010644 | 35 | 182 | 0.0 | 0.0 | 0.00 | 0.00 | 0.00 | ||
| 20260509010127 | 34 | 194 | 0.0 | 0.0 | 0.00 | 0.00 | 0.00 | ||
| 20260509005610 | 34 | 191 | 0.0 | 0.0 | 0.00 | 0.00 | 0.00 | ||
| 20260509005053 | 34 | 198 | 0.0 | 0.0 | 0.00 | 0.00 | 0.00 | ||
| 20260509004536 | 34 | 213 | 0.0 | 0.0 | 0.00 | 0.00 | 0.00 | ||
| 20260509003502 | 35 | 181 | 0.0 | 0.0 | 0.00 | 0.00 | 0.00 | ||
| 20260509002945 | 35 | 182 | 0.0 | 0.0 | 0.00 | 0.00 | 0.00 | ||
| 20260509002428 | 34 | 181 | 0.0 | 0.0 | 0.00 | 0.00 | 0.00 | ||
| 20260509001911 | 35 | 181 | 0.0 | 0.0 | 0.00 | 0.00 | 0.00 | ||
| 20260509001354 | 35 | 180 | 0.0 | 0.0 | 0.00 | 0.00 | 0.00 | ||
| 20260509000837 | 35 | 180 | 0.0 | 0.0 | 0.00 | 0.00 | 0.00 | ||
| 20260509000320 | 35 | 198 | 0.0 | 0.0 | 0.00 | 0.00 | 0.00 | ||
| 20260508235803 | 35 | 185 | 0.0 | 0.0 | 0.00 | 0.00 | 0.00 | ||
| 20260508235246 | 35 | 180 | 0.0 | 0.0 | 0.00 | 0.00 | 0.00 | ||
| 20260508234729 | 35 | 180 | 0.0 | 0.0 | 0.00 | 0.00 | 0.00 | ||
| 20260508234212 | 35 | 180 | 0.0 | 0.0 | 0.00 | 0.00 | 0.00 | ||
| 20260508233655 | 35 | 180 | 0.0 | 0.0 | 0.00 | 0.00 | 0.00 | ||
| 20260508233138 | 35 | 165 | 0.0 | 0.0 | 0.00 | 0.00 | 0.00 | ||
| 20260508232621 | 35 | 180 | 0.0 | 0.0 | 0.00 | 0.00 | 0.00 | ||
| 20260508232104 | 36 | 180 | 0.0 | 0.0 | 0.00 | 0.00 | 0.00 | ||
| 20260508231547 | 36 | 179 | 0.0 | 0.0 | 0.00 | 0.00 | 0.00 | ||
| 20260508231030 | 36 | 180 | 0.0 | 0.0 | 0.00 | 0.00 | 0.00 | ||
| 20260508230513 | 36 | 180 | 0.0 | 0.0 | 0.00 | 0.00 | 0.00 | ||
| 20260508225956 | 36 | 181 | 0.0 | 0.0 | 0.00 | 0.00 | 0.00 | ||
| 20260508225439 | 36 | 180 | 0.0 | 0.0 | 0.00 | 0.00 | 0.00 | ||
| 20260508224922 | 36 | 180 | 0.0 | 0.0 | 0.00 | 0.00 | 0.00 | ||
| 20260508224405 | 36 | 180 | 0.0 | 0.0 | 0.00 | 0.00 | 0.00 | ||
| 20260508223848 | 36 | 180 | 0.0 | 0.0 | 0.00 | 0.00 | 0.00 | ||
| 20260508223331 | 35 | 181 | 0.0 | 0.0 | 0.00 | 0.00 | 0.00 | ||
| 20260508222815 | 35 | 187 | 0.0 | 0.0 | 0.00 | 0.00 | 0.00 | ||
| 20260508222258 | 35 | 186 | 0.0 | 0.0 | 0.00 | 0.00 | 0.00 | ||
| 20260508221741 | 35 | 315 | 0.0 | 0.0 | 0.00 | 0.00 | 0.00 | ||
| 20260508221223 | 35 | 280 | 0.0 | 0.0 | 0.00 | 0.00 | 0.00 | ||
| 20260508220707 | 35 | 230 | 0.0 | 0.0 | 0.00 | 0.00 | 0.00 | ||
| 20260508220149 | 35 | 221 | 0.0 | 0.0 | 0.00 | 0.00 | 0.00 | ||
| 20260508215633 | 36 | 181 | 0.0 | 0.0 | 0.00 | 0.00 | 0.00 | ||
| 20260508215115 | 36 | 180 | 0.0 | 0.0 | 0.00 | 0.00 | 0.00 | ||
| 20260508214559 | 35 | 190 | 0.0 | 0.0 | 0.00 | 0.00 | 0.00 | ||
| 20260508214041 | 35 | 181 | 0.0 | 0.0 | 0.00 | 0.00 | 0.00 | ||
| 20260508213525 | 35 | 184 | 0.0 | 0.0 | 0.00 | 0.00 | 0.00 | ||
| 20260508213008 | 35 | 220 | 0.0 | 0.0 | 0.00 | 0.00 | 0.00 | ||
| 20260508212451 | 35 | 290 | 0.0 | 0.0 | 0.00 | 0.00 | 0.00 | ||
| 20260508211934 | 36 | 180 | 0.0 | 0.0 | 0.00 | 0.00 | 0.00 | ||
| 20260508211417 | 36 | 197 | 0.0 | 0.0 | 0.00 | 0.00 | 0.00 | ||
| 20260508210900 | 36 | 175 | 0.0 | 0.0 | 0.00 | 0.00 | 0.00 | ||
| 20260508210343 | 36 | 162 | 0.0 | 0.0 | 0.00 | 0.00 | 0.00 | ||
| 20260508205826 | 35 | 184 | 0.0 | 0.0 | 0.00 | 0.00 | 0.00 | ||
| 20260508205309 | 35 | 191 | 0.0 | 0.0 | 0.00 | 0.00 | 0.00 | ||
| 20260508204752 | 35 | 271 | 0.0 | 0.0 | 0.00 | 0.00 | 0.00 | ||
| 20260508204235 | 36 | 45 | 0.0 | 0.0 | 0.00 | 0.00 | 0.00 | ||
| 20260508203718 | 36 | 228 | 0.0 | 0.0 | 0.00 | 0.00 | 0.00 | ||
| 20260508203201 | 36 | 180 | 0.0 | 0.0 | 0.00 | 0.00 | 0.00 | ||
| 20260508202644 | 36 | 170 | 0.0 | 0.0 | 0.00 | 0.00 | 0.00 | ||
| 20260508202127 | 36 | 158 | 0.0 | 0.0 | 0.00 | 0.00 | 0.00 | ||
| 20260508201610 | 36 | 161 | 0.0 | 0.0 | 0.00 | 0.00 | 0.00 | ||
| 20260508201053 | 36 | 168 | 0.0 | 0.0 | 0.00 | 0.00 | 0.00 | ||
| 20260508200536 | 35 | 161 | 0.0 | 0.0 | 0.00 | 0.00 | 0.00 | ||
| 20260508200019 | 35 | 173 | 0.0 | 0.0 | 0.00 | 0.00 | 0.00 | ||
| 20260508195502 | 35 | 147 | 0.0 | 0.0 | 0.00 | 0.00 | 0.00 | ||
| 20260508194945 | 35 | 152 | 0.0 | 0.0 | 0.00 | 0.00 | 0.00 | ||
| 20260508194428 | 36 | 157 | 0.0 | 0.0 | 0.00 | 0.00 | 0.00 | ||
| 20260508193911 | 36 | 176 | 0.0 | 0.0 | 0.00 | 0.00 | 0.00 | ||
| 20260508193354 | 36 | 180 | 0.0 | 0.0 | 0.00 | 0.00 | 0.00 | ||
| 20260508192837 | 35 | 180 | 0.0 | 0.0 | 0.00 | 0.00 | 0.00 | ||
| 20260508192320 | 35 | 180 | 0.0 | 0.0 | 0.00 | 0.00 | 0.00 | ||
| 20260508191803 | 35 | 180 | 0.0 | 0.0 | 0.00 | 0.00 | 0.00 | ||
| 20260508191246 | 36 | 145 | 0.0 | 0.0 | 0.00 | 0.00 | 0.00 | ||
| 20260508190730 | 36 | 150 | 0.0 | 0.0 | 0.00 | 0.00 | 0.00 | ||
| 20260508185656 | 37 | 147 | 0.0 | 0.0 | 0.00 | 0.00 | 0.00 | ||
| 20260508185138 | 37 | 139 | 0.0 | 0.0 | 0.00 | 0.00 | 0.00 | ||
| 20260508184622 | 38 | 143 | 0.0 | 0.0 | 0.00 | 0.00 | 0.00 | ||
| 20260508184104 | 38 | 143 | 0.0 | 0.0 | 0.00 | 0.00 | 0.00 | ||
| 20260508183548 | 39 | 141 | 0.0 | 0.0 | 0.00 | 0.00 | 0.00 | ||
| 20260508183030 | 39 | 142 | 0.0 | 0.0 | 0.00 | 0.00 | 0.00 | ||
| 20260508182514 | 40 | 148 | 0.0 | 0.0 | 0.00 | 0.00 | 0.00 | ||
| 20260508181957 | 40 | 153 | 0.0 | 0.0 | 0.00 | 0.00 | 0.00 | ||
| 20260508181440 | 40 | 146 | 0.0 | 0.0 | 0.00 | 0.00 | 0.00 | ||
| 20260508180923 | 40 | 144 | 0.0 | 0.0 | 0.00 | 0.00 | 0.00 | ||
| 20260508180406 | 41 | 157 | 0.0 | 0.0 | 0.00 | 0.00 | 0.00 | ||
| 20260508175849 | 42 | 145 | 0.0 | 0.0 | 0.00 | 0.00 | 0.00 | ||
| 20260508175332 | 42 | 155 | 0.0 | 0.0 | 0.00 | 0.00 | 0.00 | ||
| 20260508174815 | 41 | 149 | 0.0 | 0.0 | 0.00 | 0.00 | 0.00 | ||
| 20260508174258 | 42 | 146 | 0.0 | 0.0 | 0.00 | 0.00 | 0.00 | ||
| 20260508173741 | 43 | 144 | 0.0 | 0.0 | 0.00 | 0.00 | 0.00 | ||
| 20260508173224 | 43 | 145 | 0.0 | 0.0 | 0.00 | 0.00 | 0.00 | ||
| 20260508172707 | 43 | 164 | 0.0 | 0.0 | 0.00 | 0.00 | 0.00 | ||
| 20260508172150 | 42 | 152 | 0.0 | 0.0 | 0.00 | 0.00 | 0.00 | ||
| 20260508171633 | 41 | 148 | 0.0 | 0.0 | 0.00 | 0.00 | 0.00 | ||
| 20260508171116 | 41 | 155 | 0.0 | 0.0 | 0.00 | 0.00 | 0.00 | ||
| 20260508170559 | 41 | 142 | 0.0 | 0.0 | 0.00 | 0.00 | 0.00 | ||
| 20260508170042 | 41 | 144 | 0.0 | 0.0 | 0.00 | 0.00 | 0.00 | ||
| 20260508165525 | 41 | 147 | 0.0 | 0.0 | 0.00 | 0.00 | 0.00 | ||
| 20260508165008 | 41 | 140 | 0.0 | 0.0 | 0.00 | 0.00 | 0.00 | ||
| 20260508164451 | 41 | 146 | 0.0 | 0.0 | 0.00 | 0.00 | 0.00 | ||
| 20260508163934 | 42 | 144 | 0.0 | 0.0 | 0.00 | 0.00 | 0.00 | ||
| 20260508163417 | 42 | 151 | 0.0 | 0.0 | 0.00 | 0.00 | 0.00 | ||
| 20260508162900 | 42 | 153 | 0.0 | 0.0 | 0.00 | 0.00 | 0.00 | ||
| 20260508162343 | 42 | 147 | 0.0 | 0.0 | 0.00 | 0.00 | 0.00 | ||
| 20260508161826 | 42 | 147 | 0.0 | 0.0 | 0.00 | 0.00 | 0.00 | ||
| 20260508161309 | 42 | 154 | 0.0 | 0.0 | 0.00 | 0.00 | 0.00 | ||
| 20260508160752 | 43 | 145 | 0.0 | 0.0 | 0.00 | 0.00 | 0.00 | ||
| 20260508160235 | 43 | 167 | 0.0 | 0.0 | 0.00 | 0.00 | 0.00 | ||
| 20260508155718 | 43 | 141 | 0.0 | 0.0 | 0.00 | 0.00 | 0.00 | ||
| 20260508155201 | 44 | 142 | 0.0 | 0.0 | 0.00 | 0.00 | 0.00 | ||
| 20260508154644 | 44 | 144 | 0.0 | 0.0 | 0.00 | 0.00 | 0.00 | ||
| 20260508154127 | 45 | 144 | 0.0 | 0.0 | 0.00 | 0.00 | 0.00 | ||
| 20260508153611 | 44 | 148 | 0.0 | 0.0 | 0.00 | 0.00 | 0.00 | ||
| 20260508153053 | 44 | 151 | 0.0 | 0.0 | 0.00 | 0.00 | 0.00 | ||
| 20260508152537 | 43 | 143 | 0.0 | 0.0 | 0.00 | 0.00 | 0.00 | ||
| 20260508152019 | 43 | 167 | 0.0 | 0.0 | 0.00 | 0.00 | 0.00 | ||
| 20260508151503 | 42 | 147 | 0.0 | 0.0 | 0.00 | 0.00 | 0.00 | ||
| 20260508150945 | 42 | 158 | 0.0 | 0.0 | 0.00 | 0.00 | 0.00 | ||
| 20260508150429 | 42 | 159 | 0.0 | 0.0 | 0.00 | 0.00 | 0.00 | ||
| 20260508145911 | 42 | 161 | 0.0 | 0.0 | 0.00 | 0.00 | 0.00 | ||
| 20260508145355 | 42 | 148 | 0.0 | 1.0 | 0.00 | 0.00 | 0.00 | ||
| 20260508144838 | 42 | 157 | 0.0 | 0.0 | 0.00 | 0.00 | 0.00 | ||
| 20260508144321 | 43 | 149 | 0.0 | 0.0 | 0.00 | 0.00 | 0.00 | ||
| 20260508143804 | 43 | 152 | 0.0 | 1.0 | 0.00 | 0.00 | 0.00 | ||
| 20260508143247 | 43 | 154 | 0.0 | 0.0 | 0.00 | 0.00 | 0.00 | ||
| 20260508142730 | 43 | 163 | 0.0 | 0.0 | 0.00 | 0.00 | 0.00 | ||
| 20260508142213 | 43 | 144 | 0.0 | 0.0 | 0.00 | 0.00 | 0.00 | ||
| 20260508141656 | 42 | 150 | 0.0 | 0.0 | 0.00 | 0.00 | 0.00 | ||
| 20260508141139 | 42 | 148 | 0.0 | 0.0 | 0.00 | 0.00 | 0.00 | ||
| 20260508140622 | 43 | 148 | 0.0 | 0.0 | 0.00 | 0.00 | 0.00 | ||
| 20260508140105 | 43 | 156 | 0.0 | 0.0 | 0.00 | 0.00 | 0.00 | ||
| 20260508135548 | 43 | 165 | 0.0 | 0.0 | 0.00 | 0.00 | 0.00 | ||
| 20260508135031 | 43 | 172 | 0.0 | 0.0 | 0.00 | 0.00 | 0.00 | ||
| 20260508134514 | 43 | 149 | 0.0 | 0.0 | 0.00 | 0.00 | 0.00 | ||
| 20260508133957 | 43 | 148 | 0.0 | 0.0 | 0.00 | 0.00 | 0.00 | ||
| 20260508130815 | 45 | 181 | 0.0 | 0.0 | 0.00 | 0.00 | 0.00 | ||
| 20260508130258 | 45 | 180 | 0.0 | 0.0 | 0.00 | 0.00 | 0.00 | ||
| 20260508125741 | 46 | 180 | 0.0 | 0.0 | 0.00 | 0.00 | 0.00 | ||
| 20260508125224 | 46 | 180 | 0.0 | 0.0 | 0.00 | 0.00 | 0.00 | ||
| 20260508124707 | 45 | 175 | 0.0 | 0.0 | 0.00 | 0.00 | 0.00 | ||
| 20260508124150 | 45 | 165 | 0.0 | 0.0 | 0.00 | 0.00 | 0.00 | ||
| 20260508123633 | 45 | 176 | 0.0 | 0.0 | 0.00 | 0.00 | 0.00 | ||
| 20260508123116 | 45 | 180 | 0.0 | 0.0 | 0.00 | 0.00 | 0.00 |